Weather History for PAPG - February, 2015

Change the Weather History Date:

Thursday, February 12, 2015

  Actual Average Record
Temperature  
Mean Temperature 44 °F -  
Max Temperature 51 °F 36 °F 51 °F (1987)
Min Temperature 37 °F 27 °F 11 °F (1985)
Degree Days  
Heating Degree Days 21    
Moisture  
Dew Point 37 °F    
Average Humidity 83    
Maximum Humidity 93    
Minimum Humidity 66    
Precipitation  
Precipitation 0.33 in - - ()
Sea Level Pressure  
Sea Level Pressure 29.77 in    
Wind  
Wind Speed 3 mph (SSW)    
Max Wind Speed 12 mph    
Max Gust Speed 21 mph    
Visibility 9 miles    
Events Rain    
Averages and records for this station are not official NWS values.
T = Trace of Precipitation, MM = Missing Value Source: NWS Daily Summary

Daily Weather History Graph

Daily Weather History Graph

Search for Another Location

Airport or City:

Trip Planner

Search our weather history database for the weather conditions in past years. The results will help you decide how hot, cold, wet, or windy it might be!

Date:

Astronomy

Feb. 12, 2015 Rise Set
Actual Time 7:26 AM AKST 4:46 PM AKST
Civil Twilight 6:46 AM AKST 5:26 PM AKST
Nautical Twilight 6:01 AM AKST 6:11 PM AKST
Astronomical Twilight 5:17 AM AKST 6:55 PM AKST
Moon 1:48 AM AKST (2/12) 10:32 AM AKST (2/12)
Length of Visible Light 10h 40m
Length of Day
9h 20m
Last Quarter, 43% of the Moon is Illuminated
Feb 12
Last Quarter
Feb 18
New
Feb 25
First Quarter
Mar 5
Full
Mar 13
Last Quarter

Hourly Weather History & Observations

Time (AKST) Temp. Windchill Dew Point Humidity Pressure Visibility Wind Dir Wind Speed Gust Speed Precip Events Conditions
12:16 AM 37.4 °F 33.8 °F 33.8 °F 87% 29.77 in 9.0 mi South 4.6 mph - 0.03 in   Overcast
12:36 AM 37.4 °F 33.8 °F 33.8 °F 87% 29.77 in 7.0 mi WSW 4.6 mph - 0.05 in   Overcast
12:56 AM 37.4 °F 34.9 °F 33.8 °F 87% 29.77 in 8.0 mi SW 3.5 mph - 0.09 in   Overcast
1:16 AM 37.4 °F 34.9 °F 33.8 °F 87% 29.77 in 8.0 mi WNW 3.5 mph - 0.01 in   Overcast
1:36 AM 37.4 °F - 33.8 °F 87% 29.77 in 9.0 mi Calm Calm - 0.02 in   Overcast
1:56 AM 37.4 °F - 35.6 °F 93% 29.77 in 10.0 mi Calm Calm - 0.03 in   Overcast
2:16 AM 37.4 °F - 33.8 °F 87% 29.77 in 10.0 mi Calm Calm - 0.02 in   Overcast
2:56 AM 37.4 °F 30.8 °F 33.8 °F 87% 29.76 in 10.0 mi NNW 9.2 mph - 0.04 in   Overcast
3:16 AM 37.4 °F 34.9 °F 33.8 °F 87% 29.76 in 10.0 mi SSE 3.5 mph - N/A   Overcast
3:36 AM 37.4 °F - 35.6 °F 93% 29.76 in 7.0 mi Calm Calm - 0.01 in   Overcast
3:56 AM 37.4 °F 34.9 °F 35.6 °F 93% 29.76 in 10.0 mi South 3.5 mph - 0.01 in   Overcast
4:16 AM 39.2 °F - 35.6 °F 87% 29.77 in 7.0 mi Calm Calm - 0.02 in   Overcast
4:36 AM 39.2 °F 37.0 °F 35.6 °F 87% 29.76 in 4.0 mi WSW 3.5 mph - 0.02 in   Overcast
4:56 AM 39.2 °F - 35.6 °F 87% 29.77 in 10.0 mi Calm Calm - 0.03 in   Mostly Cloudy
5:16 AM 39.2 °F - 35.6 °F 87% 29.77 in 5.0 mi Calm Calm - 0.01 in   Mostly Cloudy
5:36 AM 41.0 °F 37.1 °F 37.4 °F 87% 29.78 in 5.0 mi NNW 5.8 mph - 0.02 in   Overcast
5:56 AM 39.2 °F - 37.4 °F 93% 29.78 in 5.0 mi Calm Calm - 0.03 in   Overcast
6:16 AM 41.0 °F - 37.4 °F 87% 29.78 in 5.0 mi Calm Calm - 0.01 in   Overcast
6:36 AM 41.0 °F - 37.4 °F 87% 29.79 in 5.0 mi Calm Calm - 0.01 in   Overcast
6:56 AM 39.2 °F - 37.4 °F 93% 29.79 in 5.0 mi Calm Calm - 0.02 in   Overcast
7:16 AM 41.0 °F - 37.4 °F 87% 29.79 in 5.0 mi Calm Calm - N/A   Overcast
7:56 AM 41.0 °F - 37.4 °F 87% 29.80 in 10.0 mi Calm Calm - 0.01 in   Overcast
8:36 AM 42.8 °F - 37.4 °F 81% 29.81 in 10.0 mi Calm Calm - 0.01 in   Overcast
8:56 AM 41.0 °F 39.0 °F 37.4 °F 87% 29.81 in 10.0 mi SW 3.5 mph - 0.01 in   Overcast
9:36 AM 42.8 °F 41.1 °F 37.4 °F 81% 29.81 in 10.0 mi North 3.5 mph - N/A   Overcast
9:56 AM 42.8 °F 41.1 °F 37.4 °F 81% 29.81 in 10.0 mi South 3.5 mph - N/A   Overcast
10:16 AM 42.8 °F 39.3 °F 37.4 °F 81% 29.81 in 10.0 mi West 5.8 mph - N/A   Overcast
10:36 AM 42.8 °F - 37.4 °F 81% 29.81 in 10.0 mi Calm Calm - N/A   Overcast
10:56 AM 42.8 °F 39.3 °F 37.4 °F 81% 29.81 in 10.0 mi West 5.8 mph - N/A Rain Light Rain Showers
11:56 AM 42.8 °F - 39.2 °F 87% 29.80 in 10.0 mi Calm Calm - N/A   Overcast
12:56 PM 46.4 °F 44.3 °F 39.2 °F 76% 29.79 in 10.0 mi ESE 4.6 mph - N/A   Overcast
1:56 PM 44.6 °F 42.2 °F 39.2 °F 81% 29.77 in 10.0 mi West 4.6 mph - N/A   Overcast
2:36 PM 44.6 °F 43.1 °F 39.2 °F 81% 29.76 in 10.0 mi NNW 3.5 mph - N/A   Overcast
2:56 PM 44.6 °F 41.4 °F 37.4 °F 76% 29.76 in 10.0 mi WNW 5.8 mph - N/A   Overcast
3:36 PM 44.6 °F 41.4 °F 39.2 °F 81% 29.75 in 10.0 mi West 5.8 mph - N/A   Overcast
3:56 PM 44.6 °F 42.2 °F 39.2 °F 81% 29.74 in 10.0 mi ENE 4.6 mph - 0.03 in   Overcast
4:16 PM 44.6 °F 41.4 °F 39.2 °F 81% 29.75 in 10.0 mi WSW 5.8 mph - 0.03 in   Overcast
5:16 PM 42.8 °F 39.3 °F 37.4 °F 81% 29.73 in 10.0 mi North 5.8 mph - N/A   Overcast
5:36 PM 42.8 °F 41.1 °F 39.2 °F 87% 29.74 in 10.0 mi East 3.5 mph - N/A   Overcast
5:56 PM 44.6 °F - 39.2 °F 81% 29.73 in 10.0 mi Calm Calm - N/A   Overcast
6:56 PM 46.4 °F 41.1 °F 39.2 °F 76% 29.74 in 9.0 mi ESE 11.5 mph 20.7 mph N/A   Overcast
7:16 PM 46.4 °F 42.4 °F 41.0 °F 81% 29.75 in 7.0 mi SE 8.1 mph - N/A   Overcast
7:56 PM 48.2 °F - 39.2 °F 71% 29.75 in 10.0 mi South 6.9 mph - N/A   Overcast
7:57 PM 46.4 °F 41.1 °F 39.2 °F 76% 29.75 in 7.0 mi East 11.5 mph - N/A Rain Light Rain
8:56 PM 50.0 °F - 41.0 °F 71% 29.76 in 10.0 mi East 4.6 mph - N/A Rain Light Rain
9:16 PM 50.0 °F - 41.0 °F 71% 29.77 in 10.0 mi SE 4.6 mph - N/A   Overcast
9:56 PM 48.2 °F - 41.0 °F 76% 29.79 in 10.0 mi ESE 4.6 mph 16.1 mph N/A   Overcast
11:16 PM 50.0 °F - 41.0 °F 71% 29.79 in 10.0 mi East 4.6 mph 17.3 mph N/A   Overcast
11:36 PM 51.8 °F - 41.0 °F 67% 29.77 in 10.0 mi East 10.4 mph - N/A   Overcast
11:56 PM 50.0 °F - 39.2 °F 66% 29.77 in 10.0 mi NNE 4.6 mph 16.1 mph N/A   Mostly Cloudy